FALCON 9 R/B (54757 NORAD) Tracking and Keplerian Element Data

This shows tracking and keplerian element data for the satellite.

Feedback or suggestion? Click here.




ElementValue
Catalog54757
NameFALCON 9 R/B
Epoch Orbit202
Epoch Day13.80033224
Epoch Year2023
RAAN220.4161
Inclination9.6135
Eccentricity0.1870551
Argument of Perigee259.5057
Mean Anonmoly79.0047
Mean Motion7.26306011
Decay Rate4.4E-07
L11 54757U 22174C 23013.80033224 .00000044 00000+0 -26252-2 0 9992
L22 54757 9.6135 220.4161 1870551 259.5057 79.0047 7.26306011 2027



Live tracking and technical data element details for FALCON 9 R/B (NORAD 54757). FALCON 9 R/B can be tracked NOW for your location showing map with azimuth and elevation plus other details from your city location.







IsCatalogInMostPopularTable: catalog: 54757, numindb: 17
Update: records affected: 1



GetName: 54757 FALCON 9 R/B

Hit Count: updated at: Sun, 11 Jun 2023 00:58:21 GMT